HB9EYZ-1 Weather Reports


time (UTC)temp
F
wind
direction
speed
knots
gust
knots
rain 1hr
in
rain 24hr
in
rain mn
in
humidity
%
barometer
mb
20260506185420 51 235 0.0 0.0 0.23 0.00 1.00 56 1006.2
20260506184903 52 222 0.0 0.0 0.23 0.00 1.00 55 1006.2
20260506184347 52 225 0.0 0.0 0.23 0.00 1.00 54 1006.3
20260506183830 52 231 0.0 0.0 0.23 0.00 1.00 52 1006.0
20260506183314 52 234 0.0 0.0 0.23 0.00 1.00 51 1006.0
20260506182757 52 231 0.0 0.0 0.23 0.00 1.00 51 1006.0
20260506182240 52 232 0.0 0.0 0.23 0.00 1.00 51 1005.9
20260506181724 52 228 0.0 0.0 0.23 0.00 1.00 50 1005.9
20260506181207 52 226 0.0 0.0 0.23 0.00 1.00 50 1005.8
20260506180651 52 226 0.0 0.0 0.23 0.00 1.00 49 1005.9
20260506180134 53 229 0.0 0.0 0.23 0.00 1.00 49 1005.9
20260506175618 53 222 0.0 0.0 0.23 0.00 1.00 49 1005.7
20260506175101 53 222 0.0 0.0 0.23 0.00 1.00 49 1005.7
20260506174544 53 222 0.0 0.0 0.23 0.00 1.00 49 1005.6
20260506174027 53 223 0.0 0.0 0.23 0.00 1.00 49 1005.6
20260506173511 53 222 0.0 0.0 0.23 0.00 1.00 49 1005.6
20260506171950 53 228 0.0 0.0 0.23 0.00 1.00 49 1005.5
20260506171434 53 225 0.0 0.0 0.23 0.00 1.00 49 1005.3
20260506170917 53 227 0.0 0.0 0.23 0.00 1.00 48 1005.0
20260506170400 53 228 0.0 0.0 0.23 0.00 1.00 49 1005.2
20260506165843 53 215 0.0 0.0 0.23 0.00 1.00 49 1005.2
20260506165325 53 228 0.0 0.0 0.23 0.00 1.00 49 1005.0
20260506164808 53 225 0.0 0.0 0.23 0.00 1.00 49 1005.0
20260506164249 53 225 0.0 0.0 0.23 0.00 1.00 49 1005.1
20260506163733 53 225 0.0 0.0 0.23 0.00 1.00 48 1005.1
20260506163214 53 227 0.0 0.0 0.23 0.00 1.00 48 1005.1
20260506162657 53 225 0.0 0.0 0.23 0.00 1.00 48 1005.0
20260506162140 53 224 0.0 0.0 0.23 0.00 1.00 48 1005.0
20260506161621 53 228 0.0 0.0 0.23 0.00 1.00 48 1004.9
20260506161105 53 234 0.0 0.0 0.23 0.00 1.00 48 1005.0
20260506160548 53 223 0.0 0.0 0.23 0.00 1.00 48 1005.0
20260506160031 53 236 0.0 0.0 0.23 0.00 1.00 48 1004.8
20260506155514 53 233 0.0 0.0 0.23 0.00 1.00 48 1004.9
20260506154955 53 226 0.0 0.0 0.23 0.00 1.00 46 1005.1
20260506154439 53 235 0.0 0.0 0.23 0.00 1.00 45 1005.1
20260506153922 53 236 0.0 0.0 0.23 0.00 1.00 43 1005.2
20260506153405 53 225 0.0 0.0 0.23 0.00 1.00 44 1005.3
20260506152849 52 222 0.0 0.0 0.23 0.00 1.00 44 1005.0
20260506152332 52 225 0.0 0.0 0.23 0.00 1.00 43 1005.0
20260506151815 52 223 0.0 0.0 0.23 0.00 1.00 43 1005.1
20260506151258 52 222 0.0 0.0 0.23 0.00 1.00 43 1005.2
20260506150742 52 224 0.0 0.0 0.23 0.00 1.00 47 1005.2
20260506150225 52 223 0.0 0.0 0.23 0.00 1.00 45 1005.1
20260506145709 52 235 0.0 0.0 0.23 0.00 1.00 47 1004.9
20260506145151 52 227 0.0 0.0 0.23 0.00 1.00 48 1004.9
20260506144632 52 231 0.0 0.0 0.23 0.00 1.00 49 1004.8
20260506144116 52 229 0.0 0.0 0.23 0.00 1.00 49 1004.9
20260506143559 52 233 0.0 0.0 0.23 0.00 1.00 47 1005.0
20260506143042 52 230 0.0 0.0 0.23 0.00 1.00 45 1005.0
20260506142525 51 222 0.0 0.0 0.23 0.00 1.00 49 1005.0
20260506142008 51 233 0.0 0.0 0.23 0.00 1.00 49 1005.1
20260506141451 51 232 0.0 0.0 0.23 0.00 1.00 49 1005.1
20260506140932 52 232 0.0 0.0 0.23 0.00 1.00 49 1005.1
20260506140415 52 213 0.0 0.0 0.23 0.00 1.00 49 1005.2
20260506135858 52 232 0.0 0.0 0.23 0.00 1.00 49 1005.0
20260506135341 52 232 0.0 0.0 0.23 0.00 1.00 49 1005.1
20260506134824 52 225 0.0 0.0 0.23 0.00 1.00 50 1005.0
20260506134307 52 215 0.0 0.0 0.23 0.00 1.00 50 1004.9
20260506133750 51 223 0.0 0.0 0.23 0.00 1.00 51 1005.1
20260506133233 51 224 0.0 0.0 0.23 0.00 1.00 51 1005.2
20260506132715 51 221 0.0 0.0 0.23 0.00 1.00 51 1004.9
20260506132158 51 219 0.0 0.0 0.23 0.00 1.00 51 1004.7
20260506131640 51 211 0.0 0.0 0.23 0.00 1.00 52 1004.9
20260506131124 52 218 0.0 0.0 0.23 0.00 1.00 52 1005.1
20260506130608 52 201 0.0 0.0 0.22 0.00 1.00 53 1005.0
20260506130051 52 223 0.0 0.0 0.22 0.00 1.00 52 1004.8
20260506125534 52 223 0.0 0.0 0.21 0.00 1.00 51 1005.0
20260506125017 52 232 0.0 0.0 0.20 0.00 1.00 52 1004.8
20260506124500 52 231 0.0 0.0 0.20 0.00 1.00 52 1004.5
20260506123944 52 224 0.0 0.0 0.18 0.00 1.00 51 1004.7
20260506123426 52 216 0.0 0.0 0.18 0.00 1.00 51 1004.8
20260506122910 52 231 0.0 0.0 0.17 0.00 1.00 50 1004.5
20260506122353 53 215 0.0 0.0 0.17 0.00 1.00 49 1004.5
20260506121836 53 243 0.0 0.0 0.17 0.00 1.00 50 1004.4
20260506121320 53 245 0.0 0.0 0.16 0.00 1.00 50 1004.6
20260506120803 54 236 0.0 0.0 0.16 0.00 1.00 49 1004.4
20260506120246 54 223 0.0 0.0 0.15 0.00 1.00 49 1004.4
20260506115729 54 221 0.0 0.0 0.14 0.00 1.00 49 1004.2
20260506115213 54 231 0.0 0.0 0.14 0.00 1.00 49 1004.2
20260506114656 55 222 0.0 0.0 0.14 0.00 1.00 50 1004.1
20260506114139 55 225 0.0 0.0 0.12 0.00 1.00 52 1003.6
20260506113622 55 224 0.0 0.0 0.12 0.00 1.00 51 1004.0
20260506113105 55 222 0.0 0.0 0.11 0.00 1.00 51 1003.6
20260506112547 55 221 0.0 0.0 0.11 0.00 1.00 50 1003.5
20260506112030 55 224 0.0 0.0 0.10 0.00 1.00 50 1003.7
20260506111513 55 234 0.0 0.0 0.10 0.00 1.00 52 1003.3
20260506110455 55 234 0.0 0.0 0.10 0.00 1.00 51 1003.6
20260506105938 55 236 0.0 0.0 0.09 0.00 1.00 51 1003.7
20260506105422 54 224 0.0 0.0 0.09 0.00 1.00 50 1003.8
20260506104905 54 223 0.0 0.0 0.09 0.00 1.00 48 1003.7
20260506104348 54 222 0.0 0.0 0.08 0.00 1.00 48 1003.6
20260506103831 54 225 0.0 0.0 0.07 0.00 1.00 48 1003.7
20260506103313 55 228 0.0 0.0 0.07 0.00 1.00 48 1003.5
20260506102756 55 228 0.0 0.0 0.05 0.00 1.00 47 1003.6
20260506102237 55 228 0.0 0.0 0.04 0.00 1.00 45 1003.3
20260506101720 56 226 0.0 0.0 0.03 0.00 1.00 42 1003.3
20260506101203 56 226 0.0 0.0 0.02 0.00 1.00 42 1003.3
20260506100647 56 224 0.0 0.0 0.02 0.00 1.00 42 1003.3
20260506100130 56 228 0.0 0.0 0.02 0.00 1.00 40 1003.4
20260506095613 56 225 0.0 0.0 0.01 0.00 1.00 39 1003.3
20260506095056 56 231 0.0 0.0 0.01 0.00 1.00 37 1003.5
20260506094540 57 231 0.0 0.0 0.00 0.00 1.00 37 1003.4
20260506094023 57 235 0.0 0.0 0.00 0.00 1.00 36 1003.2
20260506093507 57 235 0.0 0.0 0.00 0.00 1.00 37 1003.0
20260506092448 58 245 0.0 0.0 0.00 0.00 1.00 35 1003.0
20260506091931 58 217 0.0 0.0 0.00 0.00 1.00 33 1003.1
20260506091414 58 231 0.0 0.0 0.00 0.00 1.00 33 1003.2
20260506090857 58 219 0.0 0.0 0.00 0.00 1.00 32 1002.9
20260506090340 57 220 0.0 0.0 0.00 0.00 1.00 32 1002.9
20260506085823 57 219 0.0 0.0 0.00 0.00 1.00 32 1002.9
20260506085306 57 217 0.0 0.0 0.00 0.00 1.00 32 1002.9
20260506084749 57 219 0.0 0.0 0.00 0.00 1.00 31 1003.0
20260506084230 57 219 0.0 0.0 0.00 0.00 1.00 31 1003.0
20260506083711 57 220 0.0 0.0 0.00 0.00 1.00 31 1003.2
20260506083154 57 220 0.0 0.0 0.00 0.00 1.00 31 1002.9
20260506082637 57 219 0.0 0.0 0.00 0.00 1.00 32 1003.0
20260506082120 57 222 0.0 0.0 0.00 0.00 1.00 31 1002.9
20260506081603 57 223 0.0 0.0 0.00 0.00 1.00 31 1002.8
20260506081047 57 218 0.0 0.0 0.00 0.00 1.00 31 1002.7
20260506080529 57 217 0.0 0.0 0.00 0.00 1.00 32 1002.6
20260506073343 55 210 0.0 0.0 0.00 0.00 1.00 33 1002.6
20260506072827 55 217 0.0 0.0 0.00 0.00 1.00 33 1003.0
20260506072310 55 219 0.0 0.0 0.00 0.00 1.00 33 1002.8
20260506071753 54 222 0.0 0.0 0.00 0.00 1.00 33 1002.8
20260506071237 54 229 0.0 0.0 0.00 0.00 1.00 32 1003.0
20260506070718 54 222 0.0 0.0 0.00 0.00 1.00 32 1003.0
20260506070201 53 218 0.0 0.0 0.00 0.00 1.00 34 1002.8
20260506062500 52 225 0.0 0.0 0.00 0.00 1.00 38 1002.9
20260506061942 51 230 0.0 0.0 0.00 0.00 1.00 40 1002.7
20260506061423 51 237 0.0 0.0 0.00 0.00 1.00 40 1003.2
20260506060905 51 226 0.0 0.0 0.00 0.00 1.00 42 1002.9
20260506060348 51 224 0.0 0.0 0.00 0.00 1.00 43 1002.9
20260506051102 49 221 0.0 0.0 0.00 0.00 1.00 51 1002.8
20260506050545 49 225 0.0 0.0 0.00 0.00 1.00 52 1003.1
20260506044454 49 230 0.0 0.0 0.00 0.00 1.00 53 1003.1
20260506043937 49 231 0.0 0.0 0.00 0.00 1.00 53 1003.1
20260506043420 50 231 0.0 0.0 0.00 0.00 1.00 53 1003.1
20260506042904 50 231 0.0 0.0 0.00 0.00 1.00 52 1002.8
20260506042347 50 231 0.0 0.0 0.00 0.00 1.00 51 1002.9
20260506041831 50 231 0.0 0.0 0.00 0.00 1.00 52 1002.9
20260506041314 50 226 0.0 0.0 0.00 0.00 1.00 52 1003.1
20260506040758 50 226 0.0 0.0 0.00 0.00 1.00 52 1003.0
20260506040241 50 235 0.0 0.0 0.00 0.00 1.00 52 1003.1
20260506035725 50 235 0.0 0.0 0.00 0.00 1.00 51 1003.4
20260506035208 50 226 0.0 0.0 0.00 0.00 1.00 51 1003.4
20260506034652 50 226 0.0 0.0 0.00 0.00 1.00 51 1003.4
20260506034135 50 226 0.0 0.0 0.00 0.00 1.00 51 1003.5
20260506033618 50 225 0.0 0.0 0.00 0.00 1.00 51 1003.5
20260506033102 50 226 0.0 0.0 0.00 0.00 1.00 51 1003.4
20260506032545 50 226 0.0 0.0 0.00 0.00 1.00 51 1003.6
20260506032029 50 226 0.0 0.0 0.00 0.00 1.00 51 1003.7
20260506031512 50 225 0.0 0.0 0.00 0.00 1.00 52 1003.7
20260506030956 50 230 0.0 0.0 0.00 0.00 1.00 52 1003.6
20260506030439 50 230 0.0 0.0 0.00 0.00 1.00 52 1003.9
20260506025923 50 230 0.0 0.0 0.00 0.00 1.00 52 1003.6
20260506025406 50 231 0.0 0.0 0.00 0.00 1.00 52 1003.7
20260506024849 50 231 0.0 0.0 0.00 0.00 1.00 51 1003.9
20260506024332 50 231 0.0 0.0 0.00 0.00 1.00 51 1003.7
20260506023815 50 231 0.0 0.0 0.00 0.00 1.00 51 1003.7
20260506023259 50 231 0.0 0.0 0.00 0.00 1.00 51 1003.7
20260506022741 50 231 0.0 0.0 0.00 0.00 1.00 51 1004.0
20260506022225 50 231 0.0 0.0 0.00 0.00 1.00 51 1003.7
20260506021709 50 231 0.0 0.0 0.00 0.00 1.00 51 1003.9
20260506021152 50 231 0.0 0.0 0.00 0.00 1.00 51 1003.8
20260506020636 50 231 0.0 0.0 0.00 0.00 1.00 50 1003.8
20260506020119 50 231 0.0 0.0 0.00 0.00 1.00 51 1003.8
20260506015602 50 231 0.0 0.0 0.00 0.00 1.00 51 1003.8
20260506015046 50 231 0.0 0.0 0.00 0.00 1.00 51 1003.8
20260506014527 50 231 0.0 0.0 0.00 0.00 1.00 51 1004.1
20260506014010 50 231 0.0 0.0 0.00 0.00 1.00 51 1004.0
20260506012447 50 231 0.0 0.0 0.00 0.00 1.00 51 1004.4
20260506011930 50 230 0.0 0.0 0.00 0.00 1.00 51 1004.3
20260506011414 50 230 0.0 0.0 0.00 0.00 1.00 51 1004.2
20260506010857 50 230 0.0 0.0 0.00 0.00 1.00 51 1004.3
20260506010340 50 230 0.0 0.0 0.00 0.00 1.00 51 1004.4
20260506005824 50 230 0.0 0.0 0.00 0.00 1.00 51 1004.3
20260506005307 50 231 0.0 0.0 0.00 0.00 1.00 52 1004.6
20260506004751 50 235 0.0 0.0 0.00 0.00 1.00 52 1004.5
20260506004234 50 231 0.0 0.0 0.00 0.00 1.00 52 1004.6
20260506003717 50 232 0.0 0.0 0.00 0.00 1.00 52 1004.9
20260506003201 50 230 0.0 0.0 0.00 0.00 1.00 52 1004.9
20260506002644 50 230 0.0 0.0 0.00 0.00 1.00 52 1004.7
20260506002127 50 230 0.0 0.0 0.00 0.00 1.00 52 1004.8
20260506001611 50 230 0.0 0.0 0.00 0.00 1.00 52 1004.8
20260505230119 50 227 0.0 0.0 0.00 0.00 1.00 54 1005.2
20260505225603 50 227 0.0 0.0 0.00 0.00 1.00 55 1005.6
20260505225046 50 227 0.0 0.0 0.00 0.00 1.00 55 1005.4
20260505224530 50 226 0.0 0.0 0.00 0.00 1.00 55 1005.4
20260505224006 50 229 0.0 0.0 0.00 0.00 1.00 55 1005.3
20260505222948 50 227 0.0 0.0 0.00 0.00 1.00 55 1005.5
20260505222431 50 227 0.0 0.0 0.00 0.00 1.00 55 1005.4
20260505221915 50 227 0.0 0.0 0.00 0.00 1.00 54 1005.3
20260505221357 50 228 0.0 0.0 0.00 0.00 1.00 54 1005.3
20260505220841 50 228 0.0 0.0 0.00 0.00 1.00 54 1005.3
20260505220324 50 228 0.0 0.0 0.00 0.00 1.00 54 1005.5
20260505215251 51 224 0.0 0.0 0.04 0.00 1.00 54 1005.6
20260505214735 51 224 0.0 0.0 0.04 0.00 1.00 54 1005.7
20260505214218 51 230 0.0 0.0 0.04 0.00 1.00 54 1005.4
20260505213701 51 230 0.0 0.0 0.04 0.00 1.00 54 1005.4
20260505213145 51 222 0.0 0.0 0.04 0.00 1.00 54 1005.6
20260505212628 51 222 0.0 0.0 0.04 0.00 1.00 54 1005.4
20260505212112 51 222 0.0 0.0 0.04 0.00 1.00 54 1005.6
20260505211550 51 222 0.0 0.0 0.04 0.00 1.00 55 1005.8
20260505211033 51 227 0.0 0.0 0.04 0.00 1.00 55 1005.7
20260505210516 51 230 0.0 0.0 0.04 0.00 1.00 54 1005.6
20260505210000 52 223 0.0 0.0 0.04 0.00 1.00 53 1005.6
20260505205443 52 230 0.0 0.0 0.04 0.00 1.00 53 1006.0
20260505204926 52 231 0.0 0.0 0.04 0.00 1.00 52 1005.8
20260505204410 52 230 0.0 0.0 0.04 0.00 1.00 52 1006.1
20260505203853 52 230 0.0 0.0 0.04 0.00 1.00 52 1005.6
20260505203336 52 231 0.0 0.0 0.04 0.00 1.00 52 1005.7
20260505202819 52 231 0.0 0.0 0.04 0.00 1.00 51 1005.7
20260505202307 53 231 0.0 0.0 0.04 0.00 1.00 51 1005.7
20260505201746 53 231 0.0 0.0 0.04 0.00 1.00 51 1005.6
20260505201229 53 231 0.0 0.0 0.04 0.00 1.00 51 1005.5
20260505200712 53 231 0.0 0.0 0.04 0.00 1.00 50 1005.4
20260505200155 53 231 0.0 0.0 0.04 0.00 1.00 50 1005.5
20260505195638 54 231 0.0 0.0 0.04 0.00 1.00 50 1005.5
20260505195121 54 231 0.0 0.0 0.04 0.00 1.00 50 1005.3
20260505194605 54 231 0.0 0.0 0.04 0.00 1.00 49 1005.3
20260505194048 54 231 0.0 0.0 0.04 0.00 1.00 48 1005.3
20260505193532 54 231 0.0 0.0 0.04 0.00 1.00 48 1005.3
20260505193015 55 231 0.0 0.0 0.04 0.00 1.00 48 1005.0
20260505192459 55 231 0.0 0.0 0.04 0.00 1.00 48 1005.1
20260505191942 55 231 0.0 0.0 0.04 0.00 1.00 48 1004.9
20260505191425 55 231 0.0 0.0 0.04 0.00 1.00 47 1004.8
20260505190909 55 231 0.0 0.0 0.04 0.00 1.00 46 1005.0
20260505190351 56 237 0.0 0.0 0.04 0.00 1.00 44 1005.1
20260505185834 56 230 0.0 0.0 0.04 0.00 1.00 43 1005.1